Dewpoint
29 17 21 13 16 19 21 21 20 17 18 20 20 19 15 15 22 19 20 22 23 19 15 15 14 14 15 14 13 13 13 13 14 14 15 15 15 15 14 14 14 13 12 13 10 9 9 9 10 11 9 5 2 1 2 2 2 1 -1 -1 -5 -3 1 6 10 10 7 3 1 4 -2 1 -1 11 9 8 9 6 3 4 6 4 2 7 7 8
27 18 22 25 21 17 16 20 21 22 22 20 19 18 17 19 16 18 18 20 24 20 15 15 15 16 15 14 14 14 14 13 13 14 14 14 14 14 15 15 14 13 13 9 6 5 6 7 9 9 8 8 3 1 -0 1 -2 -1 -2 -2 -4 -4 -1 2 8 9 2 1 2 1 1 -1 0 5 6 6 3 -0 -2 1 3 3 3 4 5 7
21 18 26 21 22 23 22 23 23 24 24 22 17 16 18 18 20 19 22 21 20 19 15 15 15 15 14 13 13 13 14 15 15 15 14 14 15 14 15 15 14 12 10 7 5 5 4 7 7 6 7 6 5 3 0 0 -0 -1 -2 -1 -1 -2 1 3 5 5 0 -2 2 1 1 2 4 4 3 -3 2 -2 -2 -3 1 -0 2 2 5 8
14 24 20 24 23 24 23 24 24 24 24 19 16 17 17 19 17 17 19 21 20 20 14 15 14 14 14 13 13 14 14 15 16 16 16 16 14 14 14 14 14 12 10 7 6 4 3 3 3 5 5 5 7 5 2 -0 -0 -1 1 -3 -1 -1 -0 2 3 4 0 2 2 5 6 7 5 3 4 -5 -6 -5 -6 -3 -3 -2 2 3 5 8
18 23 22 24 26 22 24 22 23 21 16 22 22 17 17 16 17 16 17 18 21 20 18 15 14 13 13 12 12 13 14 14 16 15 16 16 16 15 15 14 13 11 10 7 5 5 4 3 3 3 4 4 4 5 4 2 0 -1 -0 -0 -0 -0 -1 -0 2 -2 0 2 3 4 5 4 2 1 -1 -5 -8 -8 -4 -3 -3 -3 1 3 5 8
24 23 23 22 19 21 22 20 22 21 14 14 20 22 18 17 18 17 17 15 13 13 16 15 11 10 13 11 11 12 13 13 14 15 15 15 15 15 12 12 12 11 9 8 6 6 6 5 5 4 4 3 2 1 3 3 1 1 0 -2 -1 0 -0 -1 1 -1 0 0 1 2 2 1 -1 -2 -2 -5 -6 -5 -7 -7 -5 -2 -1 2 4 7
20 21 22 24 21 22 21 18 21 22 15 14 18 19 18 16 16 16 16 16 14 15 16 16 11 10 13 11 11 12 12 13 14 15 14 14 13 13 13 12 11 9 8 8 6 6 6 6 6 5 3 3 2 1 3 3 2 1 1 -0 -1 -0 -0 -2 -2 -1 0 -1 1 1 1 0 -2 -5 -4 -5 -6 -6 -7 -3 -6 -1 0 3 3 2
23 23 19 20 19 21 19 14 18 18 18 17 19 18 17 17 17 16 16 16 13 13 18 14 13 10 10 11 13 12 11 12 13 14 14 14 13 12 12 12 12 10 9 8 6 6 6 6 6 5 4 3 2 2 2 2 3 -1 -1 0 -1 -1 -0 -1 -2 -2 -2 -1 1 3 -0 -1 -4 -6 -5 -6 -8 -8 -6 -8 -6 -3 -0 2 1 -1
25 24 21 21 20 15 13 15 17 21 16 18 19 21 19 18 17 16 18 16 13 13 12 12 14 10 10 11 13 11 10 11 12 14 14 15 14 13 13 13 12 10 9 7 7 6 6 7 7 6 4 3 2 2 1 1 1 -0 -1 0 -1 -1 -2 -1 -3 -2 -4 -1 -0 1 -1 -4 -5 -4 -2 -6 -6 -9 -9 -10 -8 -4 -1 -1 -2 -4
27 23 24 21 17 10 18 19 19 21 16 22 20 19 17 17 17 16 15 18 15 13 11 11 12 10 8 12 12 12 11 10 12 13 14 15 15 15 14 13 12 12 11 9 7 7 8 8 8 7 5 4 3 2 2 2 2 -0 -1 -1 -2 -3 -3 -2 -3 -4 -4 -3 -2 1 -1 -6 -7 -5 -7 -10 -12 -12 -11 -11 -7 -4 -3 -4 -6 -9
20 28 29 25 16 18 19 20 22 18 19 24 20 16 15 13 13 12 13 14 16 10 10 11 12 9 7 10 11 11 11 15 12 12 14 15 15 15 15 14 13 12 12 10 9 8 9 10 10 9 6 4 3 1 -1 0 2 0 -2 -3 -3 -3 -3 -3 -4 -4 -5 -5 -5 -1 -4 -8 -8 -6 -8 -12 -12 -12 -12 -10 -7 -4 -4 -6 -9 -11
27 27 25 24 29 21 20 19 21 22 21 20 15 10 9 9 10 11 14 15 10 7 9 9 10 11 8 10 11 14 16 15 12 13 13 13 14 15 15 14 13 12 12 12 11 10 9 10 10 8 6 4 2 -0 -2 -2 -0 2 -3 -3 -4 -4 -4 -4 -5 -5 -6 -7 -4 -3 -9 -11 -10 -7 -9 -12 -13 -12 -11 -10 -8 -6 -6 -9 -11 -12
19 17 20 24 28 19 18 13 17 20 19 16 12 12 7 6 5 3 8 6 7 6 11 9 11 10 8 12 14 14 12 12 13 13 12 13 13 13 14 14 14 15 14 14 11 10 9 9 9 6 4 3 1 -1 -3 -3 -2 -1 -5 -5 -4 -5 -6 -5 -6 -6 -8 -7 -6 -6 -10 -11 -7 -7 -8 -13 -13 -9 -11 -12 -12 -9 -8 -10 -12 -13
4 14 15 17 18 21 16 8 9 10 11 11 8 12 7 3 2 2 1 2 3 4 6 8 12 9 11 12 14 12 9 10 11 12 12 13 13 14 14 15 16 16 15 14 12 9 8 8 7 4 2 0 -1 -3 -4 -4 -4 -3 -7 -6 -5 -7 -7 -6 -7 -7 -8 -8 -6 -8 -9 -9 -10 -9 -7 -12 -13 -11 -11 -11 -12 -12 -10 -10 -11 -13
5 -1 5 12 7 17 16 15 13 12 12 11 10 8 10 8 6 5 4 2 7 6 7 9 11 8 10 11 14 11 10 10 10 12 14 15 16 16 16 16 16 16 15 13 11 8 6 6 4 2 1 0 -1 -3 -4 -5 -5 -4 -8 -8 -7 -7 -8 -8 -8 -8 -9 -9 -8 -9 -9 -8 -8 -9 -9 -12 -11 -12 -13 -12 -12 -13 -13 -11 -11 -12
4 4 8 13 15 16 14 19 19 17 11 12 12 10 11 12 12 6 7 8 9 8 8 12 10 12 11 12 14 13 12 11 13 14 16 16 16 17 16 15 15 15 14 12 10 6 4 5 3 2 1 -1 -2 -3 -5 -6 -5 -6 -8 -8 -7 -8 -8 -9 -7 -10 -11 -10 -9 -8 -9 -9 -7 -7 -10 -10 -11 -13 -13 -12 -12 -14 -14 -13 -12 -12
8 0 11 14 16 13 15 19 18 18 8 9 9 11 11 13 11 12 6 6 7 8 8 13 10 10 12 12 13 14 14 15 16 17 16 15 13 13 11 11 13 14 13 12 9 5 3 3 2 1 0 -1 -3 -5 -7 -6 -5 -5 -8 -8 -10 -10 -9 -11 -11 -13 -11 -11 -10 -11 -10 -10 -11 -11 -12 -13 -13 -12 -12 -13 -13 -13 -14 -14 -14 -14
11 9 11 10 10 17 18 19 17 18 15 14 11 10 13 13 11 14 9 10 9 8 6 11 12 11 10 7 13 12 13 14 15 17 17 13 14 11 9 7 11 13 11 9 5 2 2 2 0 -1 -0 -2 -4 -4 -5 -6 -5 -8 -9 -9 -10 -11 -13 -13 -13 -12 -11 -11 -11 -11 -12 -12 -13 -13 -14 -13 -12 -12 -12 -13 -14 -14 -14 -15 -14 -13
14 11 7 9 11 13 12 17 14 19 19 12 11 14 14 10 9 12 12 9 9 9 8 8 10 11 11 11 10 11 12 13 12 15 16 12 12 10 7 5 10 11 9 7 4 1 1 -0 -2 -1 -1 -3 -5 -5 -6 -8 -7 -8 -9 -9 -10 -11 -11 -12 -13 -13 -11 -11 -11 -11 -12 -12 -13 -14 -14 -13 -12 -13 -14 -14 -14 -15 -15 -14 -13 -12
13 10 8 9 10 9 10 13 12 12 17 16 16 13 13 15 12 11 12 12 11 9 9 10 13 11 13 13 12 11 12 12 10 12 10 8 10 8 5 3 5 8 6 2 -1 -1 -1 -2 -3 -3 -2 -4 -5 -7 -8 -8 -7 -8 -9 -9 -10 -11 -13 -13 -13 -12 -12 -11 -11 -11 -12 -12 -13 -13 -13 -13 -14 -14 -14 -15 -15 -15 -13 -14 -13 -14
14 8 7 7 10 9 9 12 11 11 14 13 13 15 14 15 12 14 13 12 10 10 9 8 7 10 9 11 11 11 11 11 11 10 9 7 8 7 2 2 4 5 1 -0 -1 -2 -2 -3 -4 -4 -4 -6 -7 -7 -8 -8 -9 -8 -9 -10 -11 -12 -12 -13 -13 -12 -12 -11 -11 -12 -13 -13 -14 -14 -15 -15 -15 -15 -15 -15 -14 -15 -15 -15 -14 -14
19 12 11 9 9 7 10 12 13 12 10 10 12 12 12 11 10 8 6 15 13 10 9 8 6 11 9 10 10 10 10 9 8 8 7 5 4 4 2 1 3 2 0 -1 -2 -3 -4 -5 -5 -5 -6 -7 -8 -9 -9 -9 -9 -9 -10 -10 -11 -12 -13 -13 -13 -12 -12 -12 -13 -13 -13 -13 -14 -16 -16 -16 -16 -16 -16 -16 -16 -16 -16 -15 -14 -14
19 14 12 11 7 7 10 12 14 10 9 8 8 9 12 12 12 9 5 10 11 12 11 10 8 7 9 8 8 7 8 7 6 5 5 4 4 2 1 2 4 0 -1 -1 -2 -4 -4 -5 -7 -8 -7 -8 -9 -9 -9 -9 -10 -10 -10 -11 -12 -13 -13 -13 -13 -13 -13 -13 -13 -13 -13 -15 -16 -16 -16 -16 -17 -16 -16 -16 -17 -16 -15 -15 -16 -16
22 12 11 8 5 9 11 13 15 15 12 10 9 9 10 10 13 10 10 10 8 10 8 7 6 7 8 8 7 7 6 6 6 5 5 4 3 1 -2 0 -1 -1 -1 -2 -5 -5 -6 -6 -9 -9 -9 -9 -9 -9 -9 -10 -10 -10 -11 -12 -13 -13 -13 -13 -13 -12 -13 -13 -13 -14 -15 -16 -15 -16 -16 -17 -16 -17 -17 -17 -16 -15 -16 -16 -16 -17
12 10 13 7 6 7 8 9 11 12 13 9 9 8 9 9 11 12 13 9 8 9 8 7 3 7 8 8 7 6 6 6 6 5 4 3 2 0 -2 -2 -2 -1 -2 -4 -5 -6 -6 -8 -10 -10 -9 -9 -9 -9 -10 -10 -10 -11 -12 -13 -13 -13 -13 -13 -13 -14 -14 -14 -15 -16 -16 -16 -16 -17 -17 -17 -17 -17 -17 -16 -17 -17 -16 -17 -17 -16
15 14 10 1 1 -2 -3 -1 5 9 14 11 7 9 11 12 11 12 6 7 4 7 5 4 3 7 8 8 7 6 6 6 6 5 4 3 2 -1 -2 -2 -2 -2 -4 -4 -5 -6 -8 -10 -11 -10 -9 -9 -9 -9 -10 -10 -10 -11 -12 -13 -13 -14 -14 -15 -15 -15 -15 -15 -17 -16 -16 -16 -17 -17 -18 -17 -17 -16 -17 -16 -16 -17 -17 -18 -18 -17
16 13 10 11 6 2 9 12 10 13 10 11 12 11 13 12 9 11 9 6 4 7 6 5 6 6 5 7 8 8 7 6 5 4 2 1 -0 -2 -3 -3 -2 -2 -4 -5 -5 -7 -9 -11 -11 -10 -8 -9 -9 -10 -10 -10 -11 -12 -12 -13 -13 -14 -14 -14 -15 -15 -16 -16 -16 -16 -17 -17 -18 -17 -17 -16 -17 -17 -17 -17 -17 -18 -18 -17 -17 -18
14 14 13 13 14 13 9 9 8 10 8 7 11 12 12 12 13 13 7 5 8 6 -5 7 7 7 3 7 6 6 6 5 4 3 2 0 -1 -3 -2 -2 2 -3 -4 -5 -7 -9 -11 -12 -10 -9 -9 -10 -11 -11 -11 -12 -12 -12 -14 -14 -15 -15 -15 -15 -15 -15 -15 -16 -17 -17 -17 -17 -17 -17 -16 -16 -16 -17 -18 -17 -18 -18 -18 -17 -18 -17
16 10 16 14 14 10 7 7 8 8 8 8 9 9 10 11 13 10 9 7 6 5 1 2 4 5 3 6 6 6 5 4 3 2 1 0 -2 -2 -2 -2 -3 -4 -5 -7 -8 -10 -12 -11 -10 -9 -10 -11 -11 -12 -12 -12 -13 -14 -15 -15 -16 -16 -15 -15 -15 -15 -16 -17 -18 -17 -16 -16 -16 -16 -16 -16 -17 -18 -18 -18 -19 -18 -19 -19 -19 -18
17 12 18 14 13 8 7 8 8 8 8 9 10 8 8 9 10 10 9 8 7 6 4 3 4 5 5 6 6 6 5 3 2 2 0 -2 -3 -1 -2 -3 -4 -5 -6 -7 -9 -11 -12 -11 -9 -10 -10 -11 -12 -12 -13 -13 -14 -15 -16 -16 -16 -16 -16 -14 -15 -16 -17 -17 -16 -16 -16 -16 -16 -16 -17 -18 -18 -18 -19 -19 -19 -19 -19 -19 -19 -20
11 3 15 11 9 8 7 9 9 8 9 8 7 8 8 8 8 8 8 8 8 5 3 3 5 5 6 7 6 5 4 3 2 1 -1 -3 -3 -2 -3 -3 -4 -5 -7 -8 -10 -12 -12 -10 -10 -10 -11 -12 -12 -11 -12 -14 -15 -15 -16 -15 -16 -16 -15 -15 -16 -17 -17 -16 -15 -16 -16 -16 -17 -17 -18 -19 -19 -19 -19 -19 -19 -20 -19 -19 -20 -19
14 4 6 6 -7 -9 8 7 6 8 8 8 6 6 7 7 10 9 9 9 7 7 6 7 6 4 5 6 5 4 3 2 1 -0 -2 -4 -3 -2 -4 -4 -5 -6 -8 -9 -11 -12 -11 -10 -10 -11 -11 -12 -13 -13 -14 -15 -15 -16 -16 -16 -16 -16 -15 -16 -16 -16 -15 -15 -16 -16 -16 -16 -17 -18 -18 -19 -19 -19 -19 -19 -19 -19 -20 -20 -19 -19
12 11 4 3 -8 -8 5 1 -1 6 7 6 6 6 8 7 8 8 9 8 6 5 7 4 2 4 5 5 3 3 3 1 -0 -2 -4 -4 -3 -3 -4 -4 -6 -7 -8 -10 -11 -11 -11 -10 -11 -11 -11 -13 -13 -13 -13 -16 -17 -16 -16 -15 -16 -15 -16 -16 -16 -16 -16 -16 -16 -17 -17 -17 -18 -18 -18 -18 -19 -19 -19 -19 -19 -20 -20 -20 -19 -19
10 10 5 10 -5 -5 -7 -9 1 0 -11 -8 7 7 7 6 7 7 5 4 4 6 5 5 5 5 4 3 3 2 2 0 -1 -2 -3 -4 -4 -4 -5 -6 -7 -8 -9 -10 -12 -12 -10 -10 -11 -11 -11 -12 -13 -13 -15 -15 -15 -15 -15 -15 -15 -15 -15 -15 -15 -16 -16 -16 -17 -17 -17 -17 -18 -18 -18 -18 -18 -19 -19 -19 -20 -20 -20 -19 -19 -19
6 9 6 7 -2 -6 1 -3 -4 -8 -9 5 9 8 8 8 8 8 6 6 5 6 6 6 5 4 4 3 3 3 2 0 -1 -3 -4 -4 -4 -5 -5 -7 -7 -8 -10 -12 -13 -12 -11 -11 -11 -11 -11 -13 -13 -14 -15 -16 -15 -15 -14 -14 -14 -14 -14 -15 -16 -16 -16 -17 -17 -16 -17 -17 -17 -18 -18 -18 -18 -19 -19 -19 -20 -20 -18 -18 -18 -17
3 2 4 -3 -2 -1 -6 -8 -9 -8 3 9 10 11 8 9 9 7 5 6 6 7 5 4 4 4 3 3 3 2 1 -1 -2 -2 -3 -5 -5 -6 -7 -8 -9 -9 -11 -13 -13 -12 -12 -11 -11 -11 -11 -11 -15 -16 -16 -15 -14 -14 -14 -13 -14 -15 -16 -16 -16 -16 -16 -16 -16 -16 -17 -17 -18 -18 -18 -18 -18 -18 -18 -19 -20 -18 -19 -18 -18 -17
4 5 -0 -9 4 -7 -10 -9 -6 -11 -7 8 8 8 6 4 4 5 3 2 6 5 4 4 4 3 3 3 3 1 -1 -2 -3 -5 -3 -5 -5 -6 -7 -8 -8 -10 -12 -13 -13 -13 -11 -11 -11 -12 -12 -14 -15 -15 -15 -14 -13 -13 -13 -14 -15 -16 -16 -16 -16 -16 -17 -16 -16 -17 -17 -17 -17 -17 -18 -18 -18 -18 -18 -18 -18 -18 -17 -18 -18 -18
-1 -1 -7 -2 3 -4 -7 -10 -8 -8 -10 -6 7 8 9 8 8 8 8 6 5 4 4 4 3 3 3 3 1 -0 -1 -3 -9 -12 -5 -6 -6 -7 -7 -8 -9 -11 -13 -13 -13 -12 -11 -11 -12 -13 -13 -14 -15 -15 -15 -14 -13 -14 -14 -15 -15 -16 -16 -16 -16 -16 -16 -16 -17 -17 -18 -18 -17 -16 -17 -16 -17 -18 -18 -18 -17 -18 -17 -18 -18 -18
1 1 8 -1 -5 -3 -5 -10 -12 -12 -7 -4 6 8 8 8 8 9 5 3 5 5 4 4 3 3 3 2 0 -1 -3 -7 -10 -10 -6 -6 -7 -8 -9 -9 -10 -13 -14 -14 -13 -12 -12 -12 -13 -14 -14 -15 -15 -16 -15 -13 -14 -14 -15 -15 -16 -15 -16 -16 -16 -16 -16 -17 -17 -17 -17 -17 -16 -17 -17 -17 -17 -17 -17 -18 -17 -17 -16 -17 -16 -17
7 2 1 -1 -0 -2 -3 -9 -11 -7 -5 -1 8 8 7 8 8 7 -4 -4 4 4 4 4 3 2 2 1 -0 -2 -4 -8 -9 -7 -5 -7 -9 -9 -9 -9 -11 -14 -14 -13 -11 -12 -11 -12 -14 -15 -16 -16 -16 -15 -13 -14 -14 -14 -15 -15 -16 -15 -15 -16 -16 -17 -17 -17 -17 -17 -18 -16 -16 -16 -17 -17 -17 -17 -17 -17 -17 -17 -17 -16 -17 -17
4 3 -1 -5 -5 -2 2 -5 -6 -7 4 9 8 6 8 7 4 -4 -7 0 4 4 4 3 3 2 1 -0 -1 -4 -4 -4 -4 -4 -7 -10 -11 -10 -9 -9 -12 -14 -13 -12 -12 -8 -14 -15 -15 -15 -15 -16 -15 -13 -14 -14 -14 -15 -15 -16 -14 -16 -16 -16 -16 -16 -15 -16 -16 -18 -16 -16 -16 -17 -17 -17 -18 -17 -17 -17 -17 -17 -16 -17 -17 -17
2 -2 -2 -6 -3 -6 -4 -6 -7 -6 -4 8 7 7 8 4 -4 -5 3 5 4 4 4 3 2 2 0 -1 -2 -3 -3 -2 -3 -8 -11 -11 -11 -10 -9 -11 -13 -13 -13 -11 -11 -11 -14 -15 -15 -16 -16 -15 -14 -14 -15 -14 -14 -14 -14 -15 -16 -17 -17 -16 -15 -14 -15 -15 -16 -16 -16 -16 -17 -17 -18 -17 -17 -18 -18 -17 -16 -16 -17 -18 -18 -17
1 -4 -5 -6 1 -1 -4 -6 -8 -9 1 5 6 5 5 -0 -2 3 4 4 4 4 4 3 2 1 -0 -2 -2 -3 -3 -4 -8 -11 -11 -11 -11 -9 -9 -12 -13 -13 -13 -14 -14 -14 -14 -15 -16 -16 -16 -15 -15 -15 -15 -14 -14 -14 -15 -15 -16 -17 -16 -14 -15 -15 -16 -16 -17 -16 -16 -17 -17 -18 -18 -18 -18 -17 -18 -18 -17 -17 -17 -17 -17 -18
7 -4 -5 -2 0 -7 -9 -12 -10 0 1 6 4 1 2 3 5 5 4 3 4 4 3 2 2 -0 -2 -3 -3 -3 -5 -8 -11 -11 -12 -11 -10 -10 -11 -12 -13 -13 -14 -14 -14 -15 -14 -15 -15 -15 -14 -16 -16 -15 -15 -13 -13 -14 -15 -15 -16 -16 -14 -14 -16 -16 -16 -17 -17 -17 -17 -18 -18 -18 -18 -18 -18 -18 -18 -19 -18 -18 -19 -19 -19 -20
0 1 2 -6 1 -3 -9 -8 -8 3 3 6 6 5 5 6 7 5 5 4 4 4 1 1 0 -1 -3 -3 -3 -5 -8 -10 -11 -11 -11 -10 -10 -11 -12 -12 -13 -14 -14 -15 -15 -14 -14 -15 -14 -15 -15 -16 -16 -16 -15 -13 -14 -14 -15 -16 -15 -14 -15 -16 -16 -17 -17 -18 -18 -18 -18 -18 -18 -18 -18 -17 -18 -19 -20 -19 -19 -20 -20 -19 -20 -20
4 1 2 1 4 1 0 -1 -3 -1 2 5 7 7 6 6 5 4 4 4 4 3 2 0 -1 -3 -3 -4 -6 -8 -10 -11 -11 -11 -11 -11 -10 -11 -11 -12 -13 -14 -15 -15 -16 -16 -15 -14 -15 -15 -14 -15 -15 -15 -14 -14 -15 -14 -15 -14 -14 -14 -15 -16 -17 -18 -18 -18 -19 -19 -19 -19 -19 -19 -18 -18 -19 -19 -20 -20 -20 -21 -21 -21 -21 -20
5 5 3 4 4 -0 -5 5 2 2 5 5 4 6 6 6 5 4 4 4 3 2 -0 -2 -3 -3 -3 -5 -8 -10 -11 -11 -11 -11 -11 -11 -11 -11 -12 -12 -14 -14 -14 -15 -15 -14 -15 -13 -14 -13 -13 -13 -14 -15 -15 -13 -15 -13 -14 -14 -15 -15 -16 -17 -18 -19 -19 -19 -20 -19 -19 -20 -21 -21 -20 -19 -20 -20 -20 -21 -21 -21 -21 -21 -21 -20
2 6 3 2 2 -3 -7 -2 1 3 3 4 5 5 4 4 4 4 4 3 2 0 -2 -3 -4 -4 -5 -8 -10 -11 -11 -11 -10 -11 -11 -11 -10 -11 -12 -13 -13 -14 -15 -15 -15 -13 -13 -13 -13 -13 -13 -14 -14 -15 -15 -15 -14 -14 -15 -15 -15 -15 -16 -18 -19 -20 -20 -20 -20 -21 -20 -21 -21 -21 -21 -21 -21 -21 -21 -21 -21 -21 -21 -21 -20 -20
1 6 2 2 -0 -1 0 1 1 2 2 4 4 5 5 5 4 3 2 0 -1 -2 -2 -3 -4 -4 -7 -9 -10 -10 -11 -11 -11 -11 -11 -11 -11 -12 -12 -13 -13 -14 -14 -14 -14 -13 -15 -13 -13 -13 -14 -14 -15 -15 -15 -14 -14 -15 -15 -15 -15 -16 -17 -19 -20 -20 -20 -20 -21 -21 -21 -21 -21 -21 -21 -22 -21 -21 -21 -21 -21 -21 -20 -17 -17 -17
4 5 2 5 3 2 -3 -7 1 1 1 2 4 4 4 4 3 3 1 -1 -2 -2 -3 -3 -4 -5 -7 -9 -10 -10 -10 -11 -11 -11 -10 -11 -11 -12 -12 -13 -14 -14 -14 -13 -15 -15 -14 -12 -13 -14 -14 -15 -15 -14 -14 -14 -15 -15 -15 -15 -16 -16 -18 -19 -21 -21 -21 -21 -21 -22 -22 -22 -22 -21 -22 -22 -22 -22 -21 -18 -16 -16 -18 -18 -13 -12
0 1 2 1 -0 -1 -5 1 4 3 3 5 6 4 4 2 2 2 1 -0 -1 -2 -3 -4 -4 -5 -8 -9 -10 -10 -11 -10 -11 -11 -11 -11 -12 -12 -13 -13 -13 -13 -13 -14 -14 -13 -13 -14 -13 -14 -14 -14 -15 -14 -15 -15 -15 -15 -16 -15 -16 -17 -18 -19 -21 -22 -22 -23 -23 -22 -22 -22 -22 -22 -22 -22 -22 -23 -23 -23 -21 -5 -12 -13 -13 -10